Chamberlain, SD

5:57 AM CDT on June 23, 2017 (GMT -0500)
Chamberlain

Weather History for K9V9 - June, 2013

Change the Weather History Date:

Thursday, June 13, 2013

  Actual Average Record
Temperature  
Mean Temperature 64 °F -  
Max Temperature 75 °F 75 °F 96 °F (2006)
Min Temperature 53 °F 52 °F 44 °F (2014)
Degree Days  
Heating Degree Days 1    
Growing Degree Days 14 (Base 50)    
Moisture  
Dew Point 54 °F    
Average Humidity 68    
Maximum Humidity 93    
Minimum Humidity 51    
Precipitation  
Precipitation 0.00 in - - ()
Sea Level Pressure  
Sea Level Pressure 30.07 in    
Wind  
Wind Speed 6 mph (SE)    
Max Wind Speed 23 mph    
Max Gust Speed 55 mph    
Averages and records for this station are not official NWS values.
T = Trace of Precipitation, MM = Missing Value Source: NWS Daily Summary

Daily Weather History Graph

Daily Weather History Graph

Search for Another Location

Airport or City:

Trip Planner

Search our weather history database for the weather conditions in past years. The results will help you decide how hot, cold, wet, or windy it might be!

Date:

Astronomy

Jun. 13, 2013 Rise Set
Actual Time 5:54 AM CDT 9:20 PM CDT
Civil Twilight 5:18 AM CDT 9:56 PM CDT
Nautical Twilight 4:31 AM CDT 10:43 PM CDT
Astronomical Twilight 3:32 AM CDT 11:43 PM CDT
Moon 10:40 AM CDT (6/13) No Moon Set
Length of Visible Light 16h 37m
Length of Day
15h 25m
Waxing Crescent, 22% of the Moon is Illuminated
Jun 13
Waxing Crescent
Jun 16
First Quarter
Jun 23
Full
Jun 29
Last Quarter
Jul 8
New

Hourly Weather History & Observations

Time (CDT) Temp. Dew Point Humidity Pressure Visibility Wind Dir Wind Speed Gust Speed Precip Events Conditions
12:52 AM 57.9 °F 53.1 °F 84% 30.13 in - Calm Calm - N/A   Unknown
1:52 AM 55.9 °F 52.0 °F 87% 30.14 in - Calm Calm - N/A   Unknown
2:52 AM 55.9 °F 52.0 °F 87% 30.13 in - North 4.6 mph - N/A   Unknown
3:52 AM 57.0 °F 53.1 °F 87% 30.12 in - NNE 4.6 mph - N/A   Unknown
4:52 AM 54.0 °F 51.1 °F 90% 30.12 in - NNW 3.5 mph - N/A   Unknown
5:52 AM 53.1 °F 51.1 °F 93% 30.12 in - West 3.5 mph - N/A   Unknown
6:52 AM 55.0 °F 53.1 °F 93% 30.13 in - Calm Calm - N/A   Unknown
7:52 AM 61.0 °F 55.9 °F 83% 30.13 in - Calm Calm - N/A   Unknown
8:52 AM 64.0 °F 53.1 °F 67% 30.15 in - ENE 4.6 mph - N/A   Unknown
9:52 AM 66.0 °F 54.0 °F 65% 30.14 in - SE 8.1 mph - N/A   Unknown
10:52 AM 68.0 °F 52.0 °F 56% 30.12 in - ESE 9.2 mph - N/A   Unknown
11:52 AM 70.0 °F 53.1 °F 55% 30.11 in - SSW 23.0 mph 55.2 mph N/A   Unknown
12:52 PM 71.1 °F 52.0 °F 51% 30.10 in - ESE 11.5 mph - N/A   Unknown
1:52 PM 73.0 °F 54.0 °F 51% 30.09 in - SSE 10.4 mph 17.3 mph N/A   Unknown
2:52 PM 73.0 °F 54.0 °F 51% 30.06 in - SSE 9.2 mph - N/A   Unknown
3:52 PM 75.0 °F 55.9 °F 51% 30.04 in - SE 12.7 mph - N/A   Unknown
4:52 PM 73.0 °F 54.0 °F 51% 30.01 in - SSE 9.2 mph 20.7 mph N/A   Unknown
5:52 PM 73.9 °F 55.9 °F 53% 29.99 in - SSE 17.3 mph - N/A   Unknown
6:52 PM 73.0 °F 54.0 °F 51% 29.98 in - South 23.0 mph - N/A   Unknown
7:52 PM 72.0 °F 53.1 °F 51% 29.95 in - SE 13.8 mph - N/A   Unknown
8:52 PM 69.1 °F 54.0 °F 58% 29.95 in - SE 12.7 mph - N/A   Unknown
9:52 PM 66.0 °F 55.0 °F 68% 29.97 in - SE 9.2 mph - N/A   Unknown
10:52 PM 66.9 °F 55.9 °F 68% 29.99 in - SE 10.4 mph - N/A   Unknown
11:52 PM 66.0 °F 55.9 °F 70% 29.98 in - SE 9.2 mph - N/A   Unknown